GW6340 Weather Reports


Display with metric or nautical units.
time (UTC)temp
F
wind
direction
speed
MPH
gust
MPH
rain 1hr
in
rain 24hr
in
rain mn
in
humidity
%
barometer
mb
20260507183558 85 200 6.0 9.0 0.00 0.00 0.00 78 1009.8
20260507183059 85 205 6.0 9.0 0.00 0.00 0.00 77 1009.8
20260507182558 85 193 6.0 10.0 0.00 0.00 0.00 79 1009.9
20260507182058 85 190 6.0 10.0 0.00 0.00 0.00 78 1010.0
20260507181606 85 182 5.0 9.0 0.00 0.00 0.00 79 1010.0
20260507181058 85 206 5.0 9.0 0.00 0.00 0.00 78 1010.1
20260507180601 85 186 5.0 8.0 0.00 0.00 0.00 78 1010.0
20260507180058 85 182 4.0 8.0 0.00 0.00 0.00 78 1010.1
20260507175558 85 182 5.0 11.0 0.00 0.00 0.00 79 1010.1
20260507175058 85 190 5.0 11.0 0.00 0.00 0.00 78 1010.0
20260507174602 85 192 4.0 10.0 0.00 0.00 0.00 78 1010.2
20260507174058 85 181 6.0 10.0 0.00 0.00 0.00 78 1010.3
20260507173558 85 215 6.0 9.0 0.00 0.00 0.00 78 1010.2
20260507173132 85 203 4.0 7.0 0.00 0.00 0.00 78 1010.4
20260507172558 85 157 4.0 8.0 0.00 0.00 0.00 78 1010.3
20260507172058 85 200 5.0 8.0 0.00 0.00 0.00 78 1010.4
20260507171609 85 232 5.0 8.0 0.00 0.00 0.00 78 1010.5
20260507171059 85 188 4.0 8.0 0.00 0.00 0.00 79 1010.5
20260507170558 85 211 4.0 8.0 0.00 0.00 0.00 78 1010.4
20260507170115 85 197 4.0 8.0 0.00 0.00 0.00 78 1010.4
20260507170001 85 205 4.0 8.0 0.00 0.00 0.00 78 1010.4
20260507165559 85 223 5.0 8.0 0.00 0.00 0.00 77 1010.5
20260507165059 85 223 4.0 7.0 0.00 0.00 0.00 77 1010.6
20260507164600 85 213 2.0 6.0 0.00 0.00 0.00 77 1010.7
20260507164100 85 225 2.0 7.0 0.00 0.00 0.00 76 1010.7
20260507163600 85 211 3.0 7.0 0.00 0.00 0.00 76 1010.8
20260507163100 85 227 3.0 6.0 0.00 0.00 0.00 76 1011.0
20260507162600 84 277 2.0 7.0 0.00 0.00 0.00 77 1011.0
20260507162100 84 202 3.0 7.0 0.00 0.00 0.00 77 1011.1
20260507161606 85 206 3.0 7.0 0.00 0.00 0.00 76 1011.2
20260507161059 85 262 3.0 7.0 0.00 0.00 0.00 76 1011.2
20260507160600 84 244 3.0 7.0 0.00 0.00 0.00 77 1011.3
20260507160059 84 236 3.0 7.0 0.00 0.00 0.00 77 1011.4
20260507155558 85 274 3.0 6.0 0.00 0.00 0.00 76 1011.3
20260507155100 84 271 1.0 5.0 0.00 0.00 0.00 77 1011.2
20260507154558 84 263 2.0 5.0 0.00 0.00 0.00 77 1011.3
20260507154058 84 223 2.0 5.0 0.00 0.00 0.00 77 1011.3
20260507153602 84 284 2.0 4.0 0.00 0.00 0.00 77 1011.3
20260507153101 83 229 3.0 4.0 0.00 0.00 0.00 77 1011.4
20260507152558 83 266 2.0 5.0 0.00 0.00 0.00 77 1011.5
20260507152058 83 286 2.0 5.0 0.00 0.00 0.00 77 1011.7
20260507151601 83 299 2.0 5.0 0.00 0.00 0.00 77 1011.7
20260507151058 84 275 3.0 6.0 0.00 0.00 0.00 77 1011.7
20260507150558 84 223 2.0 4.0 0.00 0.00 0.00 77 1011.8
20260507145558 84 236 2.0 4.0 0.00 0.00 0.00 77 1011.8
20260507145058 83 267 1.0 4.0 0.00 0.00 0.00 77 1011.9
20260507144602 83 277 1.0 3.0 0.00 0.00 0.00 77 1011.8
20260507144058 83 321 1.0 3.0 0.00 0.00 0.00 78 1011.9
20260507143558 83 346 1.0 3.0 0.00 0.00 0.00 78 1011.8
20260507143114 83 355 1.0 2.0 0.00 0.00 0.00 79 1011.9
20260507142559 82 302 1.0 3.0 0.00 0.00 0.00 79 1011.9
20260507142058 82 311 0.0 3.0 0.00 0.00 0.00 79 1011.9
20260507141634 82 360 1.0 2.0 0.00 0.00 0.00 79 1011.8
20260507141058 82 5 1.0 2.0 0.00 0.00 0.00 80 1011.8
20260507140559 82 9 0.0 2.0 0.00 0.00 0.00 80 1011.7
20260507140100 82 59 1.0 2.0 0.00 0.00 0.00 80 1011.7
20260507135558 82 294 0.0 2.0 0.00 0.00 0.00 81 1011.5
20260507135059 82 290 0.0 2.0 0.00 0.00 0.00 81 1011.4
20260507134604 82 341 0.0 2.0 0.00 0.00 0.00 82 1011.3
20260507134058 81 50 0.0 2.0 0.00 0.00 0.00 83 1011.2
20260507133558 81 338 0.0 2.0 0.00 0.00 0.00 83 1011.1
20260507133105 80 338 0.0 2.0 0.00 0.00 0.00 83 1011.1
20260507132557 80 338 0.0 1.0 0.00 0.00 0.00 83 1011.0
20260507132057 80 345 0.0 0.0 0.00 0.00 0.00 84 1011.0
20260507131558 80 345 0.0 2.0 0.00 0.00 0.00 84 1010.9
20260507131058 80 345 0.0 2.0 0.00 0.00 0.00 84 1010.8
20260507130558 80 345 0.0 1.0 0.00 0.00 0.00 84 1010.8
20260507130058 80 345 0.0 2.0 0.00 0.00 0.00 84 1010.9
20260507125558 80 345 0.0 2.0 0.00 0.00 0.00 84 1010.8
20260507125057 80 345 0.0 2.0 0.00 0.00 0.00 84 1010.6
20260507124558 80 345 1.0 2.0 0.00 0.00 0.00 84 1010.5
20260507124058 80 345 0.0 2.0 0.00 0.00 0.00 84 1010.5
20260507123558 80 345 0.0 2.0 0.00 0.00 0.00 84 1010.5
20260507123058 80 345 0.0 2.0 0.00 0.00 0.00 84 1010.3
20260507122558 80 345 1.0 2.0 0.00 0.00 0.00 83 1010.3
20260507122058 80 333 0.0 2.0 0.00 0.00 0.00 83 1010.3
20260507121603 80 333 0.0 2.0 0.00 0.00 0.00 83 1010.2
20260507121059 80 333 0.0 2.0 0.00 0.00 0.00 83 1010.2
20260507120558 80 61 0.0 2.0 0.00 0.00 0.00 83 1010.1
20260507120104 80 161 0.0 2.0 0.00 0.00 0.00 82 1010.0
20260507115558 81 161 0.0 2.0 0.00 0.00 0.00 83 1009.9
20260507115058 81 161 0.0 2.0 0.00 0.00 0.00 82 1009.8
20260507114615 81 161 0.0 2.0 0.00 0.00 0.00 83 1009.7
20260507114100 81 161 0.0 2.0 0.00 0.00 0.00 82 1009.7
20260507113559 81 161 0.0 2.0 0.00 0.00 0.00 83 1009.6
20260507113058 81 161 0.0 2.0 0.00 0.00 0.00 83 1009.7
20260507112559 81 107 0.0 2.0 0.00 0.00 0.00 83 1009.6
20260507112058 81 24 0.0 2.0 0.00 0.00 0.00 83 1009.5
20260507111558 81 67 0.0 2.0 0.00 0.00 0.00 83 1009.4
20260507111100 81 76 1.0 2.0 0.00 0.00 0.00 83 1009.4
20260507110558 81 63 1.0 2.0 0.00 0.00 0.00 83 1009.4
20260507110104 81 36 1.0 4.0 0.00 0.00 0.00 83 1009.4
20260507105559 81 67 1.0 4.0 0.00 0.00 0.00 83 1009.3
20260507105058 81 49 2.0 4.0 0.00 0.00 0.00 83 1009.3
20260507104600 81 50 2.0 4.0 0.00 0.00 0.00 83 1009.3
20260507104100 80 42 1.0 4.0 0.00 0.00 0.00 83 1009.3
20260507103558 80 32 2.0 4.0 0.00 0.00 0.00 83 1009.3
20260507103058 80 360 1.0 3.0 0.00 0.00 0.00 83 1009.2
20260507102558 80 30 2.0 3.0 0.00 0.00 0.00 83 1009.2
20260507102058 79 16 2.0 4.0 0.00 0.00 0.00 82 1009.3
20260507101603 79 342 2.0 4.0 0.00 0.00 0.00 82 1009.3
20260507101058 79 350 3.0 4.0 0.00 0.00 0.00 82 1009.2
20260507100558 80 332 3.0 4.0 0.00 0.00 0.00 82 1009.3
20260507095557 80 342 2.0 3.0 0.00 0.00 0.00 82 1009.4
20260507095101 80 350 2.0 3.0 0.00 0.00 0.00 82 1009.4
20260507094559 81 338 1.0 2.0 0.00 0.00 0.00 82 1009.4
20260507094056 81 355 0.0 1.0 0.00 0.00 0.00 82 1009.4
20260507093557 81 355 0.0 1.0 0.00 0.00 0.00 82 1009.4
20260507093057 81 355 1.0 2.0 0.00 0.00 0.00 82 1009.4
20260507092557 81 355 0.0 2.0 0.00 0.00 0.00 82 1009.5
20260507092057 81 355 0.0 2.0 0.00 0.00 0.00 82 1009.6
20260507091557 80 355 0.0 2.0 0.00 0.00 0.00 82 1009.4
20260507091057 80 355 0.0 2.0 0.00 0.00 0.00 82 1009.5
20260507090556 80 355 1.0 2.0 0.00 0.00 0.00 82 1009.5
20260507090057 80 355 1.0 2.0 0.00 0.00 0.00 82 1009.6
20260507085559 80 350 1.0 2.0 0.00 0.00 0.00 82 1009.6
20260507085058 81 349 0.0 2.0 0.00 0.00 0.00 82 1009.7
20260507084603 81 355 0.0 2.0 0.00 0.00 0.00 82 1009.8
20260507084057 81 13 0.0 2.0 0.00 0.00 0.00 82 1009.8
20260507083557 81 13 0.0 2.0 0.00 0.00 0.00 82 1009.9
20260507083058 81 11 0.0 2.0 0.00 0.00 0.00 82 1010.0
20260507082558 81 15 0.0 2.0 0.00 0.00 0.00 82 1010.0
20260507082058 81 15 0.0 2.0 0.00 0.00 0.00 82 1010.1
20260507081559 81 15 0.0 2.0 0.00 0.00 0.00 82 1010.2
20260507081057 82 65 0.0 2.0 0.00 0.00 0.00 83 1010.2
20260507080558 82 80 0.0 2.0 0.00 0.00 0.00 83 1010.3
20260507080057 82 80 0.0 2.0 0.00 0.00 0.00 83 1010.5
20260507075557 82 80 0.0 2.0 0.00 0.00 0.00 83 1010.5
20260507075056 82 87 1.0 2.0 0.00 0.00 0.00 83 1010.6
20260507074557 82 79 0.0 2.0 0.00 0.00 0.00 84 1010.5
20260507074056 82 65 0.0 2.0 0.00 0.00 0.00 84 1010.7
20260507073558 82 9 1.0 2.0 0.00 0.00 0.00 84 1010.8
20260507073134 82 11 1.0 2.0 0.00 0.00 0.00 84 1010.9
20260507072557 82 17 1.0 2.0 0.00 0.00 0.00 84 1010.9
20260507072056 82 318 0.0 2.0 0.00 0.00 0.00 84 1011.0
20260507071557 82 318 0.0 2.0 0.00 0.00 0.00 84 1011.0
20260507071057 82 318 0.0 2.0 0.00 0.00 0.00 84 1011.1
20260507070557 83 318 0.0 2.0 0.00 0.00 0.00 84 1011.1
20260507070058 83 318 0.0 1.0 0.00 0.00 0.00 84 1011.3
20260507065559 83 318 0.0 2.0 0.00 0.00 0.00 84 1011.4
20260507065059 83 318 0.0 2.0 0.00 0.00 0.00 84 1011.4
20260507064612 83 318 0.0 2.0 0.00 0.00 0.00 83 1011.5
20260507064100 83 335 0.0 2.0 0.00 0.00 0.00 83 1011.7
20260507063559 83 355 0.0 2.0 0.00 0.00 0.00 83 1011.7
20260507063115 83 336 0.0 2.0 0.00 0.00 0.00 83 1011.7
20260507062600 83 9 0.0 2.0 0.00 0.00 0.00 83 1011.8
20260507062100 83 29 1.0 2.0 0.00 0.00 0.00 83 1011.9
20260507061600 83 13 1.0 2.0 0.00 0.00 0.00 83 1012.0
20260507061104 83 38 1.0 2.0 0.00 0.00 0.00 83 1012.0
20260507060559 83 9 1.0 3.0 0.00 0.00 0.00 83 1012.0
20260507060059 83 355 2.0 4.0 0.00 0.00 0.00 83 1012.0
20260507055600 83 360 2.0 4.0 0.00 0.00 0.00 83 1012.1
20260507055100 83 355 1.0 3.0 0.00 0.00 0.00 83 1012.1
20260507054601 83 13 1.0 3.0 0.00 0.00 0.00 83 1012.1
20260507054102 83 9 2.0 3.0 0.00 0.00 0.00 83 1012.0
20260507053601 83 324 1.0 2.0 0.00 0.00 0.00 83 1012.1
20260507053101 83 306 0.0 2.0 0.00 0.00 0.00 83 1012.1
20260507052600 83 282 1.0 2.0 0.00 0.00 0.00 83 1012.0
20260507052100 83 277 1.0 2.0 0.00 0.00 0.00 83 1012.1
20260507051600 83 302 1.0 2.0 0.00 0.00 0.00 83 1012.0
20260507051104 83 308 0.0 2.0 0.00 0.00 0.00 83 1012.1
20260507050600 83 272 1.0 2.0 0.00 0.00 0.00 83 1012.0
20260507045559 83 247 1.0 3.0 0.00 0.00 0.00 83 1011.9
20260507045100 83 289 1.0 3.0 0.00 0.00 0.00 83 1011.9
20260507044601 83 263 0.0 3.0 0.00 0.00 0.00 84 1012.0
20260507044059 83 311 1.0 3.0 0.00 0.00 0.00 84 1011.9
20260507043600 83 306 1.0 2.0 0.00 0.00 0.00 84 1011.9
20260507043101 83 342 0.0 3.0 0.00 0.00 0.00 84 1011.8
20260507042559 83 355 0.0 3.0 0.00 0.00 0.00 84 1011.7
20260507042103 83 332 1.0 3.0 0.00 0.00 0.00 84 1011.7
20260507041612 83 333 0.0 3.0 0.00 0.00 0.00 84 1011.7
20260507041100 83 312 1.0 3.0 0.00 0.00 0.00 84 1011.6
20260507040600 83 300 0.0 3.0 0.00 0.00 0.00 84 1011.6
20260507040108 83 317 1.0 3.0 0.00 0.00 0.00 84 1011.5
20260507035600 83 311 0.0 3.0 0.00 0.00 0.00 84 1011.4
20260507035100 83 360 1.0 3.0 0.00 0.00 0.00 84 1011.4
20260507034620 83 328 1.0 4.0 0.00 0.00 0.00 84 1011.2
20260507034102 83 271 2.0 4.0 0.00 0.00 0.00 84 1011.2
20260507033600 83 278 1.0 5.0 0.00 0.00 0.00 83 1011.1
20260507033108 83 332 3.0 5.0 0.00 0.00 0.00 83 1011.1
20260507032600 83 323 3.0 5.0 0.00 0.00 0.00 83 1011.0
20260507032100 83 330 2.0 4.0 0.00 0.00 0.00 83 1011.0
20260507031600 83 322 1.0 4.0 0.00 0.00 0.00 83 1011.0
20260507031102 83 290 1.0 4.0 0.00 0.00 0.00 83 1011.0
20260507030604 83 340 2.0 4.0 0.00 0.00 0.00 83 1011.0
20260507030105 83 348 1.0 4.0 0.00 0.00 0.00 82 1010.9
20260507030000 84 9 1.0 4.0 0.00 0.00 0.00 82 1011.0
20260507025559 83 5 2.0 6.0 0.00 0.00 0.00 82 1010.9
20260507025101 84 316 3.0 6.0 0.00 0.00 0.00 82 1011.0
20260507024605 84 360 3.0 5.0 0.00 0.00 0.00 82 1011.0
20260507024100 84 345 3.0 5.0 0.00 0.00 0.00 82 1010.9
20260507023600 84 339 3.0 5.0 0.00 0.00 0.00 82 1011.1
20260507023059 84 9 2.0 5.0 0.00 0.00 0.00 82 1011.0
20260507022600 84 309 2.0 5.0 0.00 0.00 0.00 82 1011.0
20260507022101 84 299 2.0 5.0 0.00 0.00 0.00 81 1011.0
20260507021608 84 313 2.0 6.0 0.00 0.00 0.00 82 1010.9
20260507021059 84 316 3.0 6.0 0.00 0.00 0.00 82 1011.0
20260507020559 84 320 3.0 5.0 0.00 0.00 0.00 82 1011.0
20260507020002 84 287 1.0 7.0 0.00 0.00 0.00 82 1011.0
20260507015559 84 325 3.0 7.0 0.00 0.00 0.00 82 1011.0
20260507015500 84 252 3.0 7.0 0.00 0.00 0.00 81 1010.9
20260507015101 84 317 3.0 6.0 0.00 0.00 0.00 82 1011.0
20260507014600 84 329 1.0 6.0 0.00 0.00 0.00 82 1010.8
20260507014103 84 331 2.0 5.0 0.00 0.00 0.00 82 1010.9
20260507013601 84 339 1.0 6.0 0.00 0.00 0.00 82 1010.9
20260507013116 84 274 2.0 7.0 0.00 0.00 0.00 82 1010.9
20260507012601 84 323 2.0 7.0 0.00 0.00 0.00 81 1010.9
20260507012100 84 294 1.0 7.0 0.00 0.00 0.00 81 1010.7
20260507011600 84 267 1.0 7.0 0.00 0.00 0.00 81 1010.6
20260507011100 84 250 2.0 6.0 0.00 0.00 0.00 81 1010.6
20260507010600 84 306 1.0 9.0 0.00 0.00 0.00 81 1010.6
20260507010003 84 273 4.0 9.0 0.00 0.00 0.00 81 1010.6
20260507005605 84 296 3.0 8.0 0.00 0.00 0.00 81 1010.6
20260507005059 84 269 3.0 7.0 0.00 0.00 0.00 81 1010.4
20260507004600 84 303 1.0 7.0 0.00 0.00 0.00 81 1010.3
20260507004059 84 255 2.0 7.0 0.00 0.00 0.00 81 1010.5
20260507003603 84 275 2.0 8.0 0.00 0.00 0.00 81 1010.4
20260507003100 84 257 3.0 8.0 0.00 0.00 0.00 81 1010.2
20260507002559 85 308 2.0 8.0 0.00 0.00 0.00 81 1010.1
20260507002100 85 315 3.0 8.0 0.00 0.00 0.00 81 1010.1
20260507001613 85 9 3.0 8.0 0.00 0.00 0.00 81 1010.0
20260507001059 85 302 2.0 8.0 0.00 0.00 0.00 81 1010.0
20260507000559 85 271 3.0 10.0 0.00 0.00 0.00 81 1010.0
20260507000002 85 256 3.0 10.0 0.00 0.00 0.00 80 1009.9
20260506235600 85 277 3.0 9.0 0.00 0.00 0.00 81 1009.7
20260506235100 86 326 5.0 9.0 0.00 0.00 0.00 80 1009.6
20260506234608 86 249 3.0 9.0 0.00 0.00 0.00 80 1009.6
20260506234102 85 260 3.0 9.0 0.00 0.00 0.00 80 1009.6
20260506233600 85 279 4.0 9.0 0.00 0.00 0.00 79 1009.7
20260506233109 86 296 4.0 9.0 0.00 0.00 0.00 78 1009.7
20260506232600 86 298 5.0 12.0 0.00 0.00 0.00 78 1009.6
20260506232101 86 210 3.0 12.0 0.00 0.00 0.00 78 1009.6
20260506231600 86 298 5.0 11.0 0.00 0.00 0.00 78 1009.6
20260506231100 86 261 5.0 10.0 0.00 0.00 0.00 77 1009.5
20260506230601 87 286 5.0 9.0 0.00 0.00 0.00 77 1009.6
20260506230501 87 267 4.0 9.0 0.00 0.00 0.00 77 1009.6
20260506225601 87 346 3.0 9.0 0.00 0.00 0.00 78 1009.6
20260506225059 87 315 6.0 9.0 0.00 0.00 0.00 78 1009.6
20260506224613 87 274 3.0 10.0 0.00 0.00 0.00 78 1009.7
20260506224058 87 250 5.0 10.0 0.00 0.00 0.00 78 1009.6
20260506223558 87 298 3.0 9.0 0.00 0.00 0.00 78 1009.7
20260506223103 87 270 4.0 10.0 0.00 0.00 0.00 78 1009.6
20260506222559 87 277 5.0 11.0 0.00 0.00 0.00 78 1009.7
20260506222059 86 255 5.0 12.0 0.00 0.00 0.00 79 1009.7
20260506221559 86 271 8.0 11.0 0.00 0.00 0.00 78 1009.6
20260506221058 87 251 3.0 8.0 0.00 0.00 0.00 80 1009.7
20260506220558 87 268 6.0 9.0 0.00 0.00 0.00 79 1009.7
20260506220110 87 267 3.0 10.0 0.00 0.00 0.00 80 1009.6
20260506215600 86 311 5.0 10.0 0.00 0.00 0.00 80 1009.6
20260506215059 86 293 4.0 9.0 0.00 0.00 0.00 80 1009.6
20260506214559 86 275 6.0 9.0 0.00 0.00 0.00 80 1009.6
20260506214058 86 274 6.0 10.0 0.00 0.00 0.00 80 1009.6
20260506213603 86 296 6.0 10.0 0.00 0.00 0.00 81 1009.6
20260506213059 86 275 7.0 10.0 0.00 0.00 0.00 80 1009.6
20260506212558 86 273 7.0 10.0 0.00 0.00 0.00 80 1009.6
20260506212059 86 267 5.0 9.0 0.00 0.00 0.00 80 1009.6
20260506211559 86 255 6.0 11.0 0.00 0.00 0.00 79 1009.6
20260506211058 86 245 6.0 11.0 0.00 0.00 0.00 79 1009.8
20260506210559 87 265 5.0 9.0 0.00 0.00 0.00 78 1009.9
20260506210100 87 265 3.0 9.0 0.00 0.00 0.00 78 1009.9
20260506210001 87 203 3.0 9.0 0.00 0.00 0.00 78 1009.9
20260506205600 88 267 6.0 9.0 0.00 0.00 0.00 76 1009.9
20260506205101 88 276 2.0 7.0 0.00 0.00 0.00 76 1009.9
20260506204600 88 257 4.0 7.0 0.00 0.00 0.00 76 1009.9
20260506204100 88 252 2.0 7.0 0.00 0.00 0.00 76 1009.9
20260506203604 88 238 3.0 9.0 0.00 0.00 0.00 76 1009.9
20260506203102 88 257 3.0 9.0 0.00 0.00 0.00 76 1010.0
20260506202600 88 217 3.0 9.0 0.00 0.00 0.00 76 1010.1
20260506202100 88 211 3.0 9.0 0.00 0.00 0.00 76 1010.1
20260506201600 88 192 3.0 8.0 0.00 0.00 0.00 77 1010.1
20260506201100 87 248 4.0 9.0 0.00 0.00 0.00 77 1010.0
20260506200603 87 256 3.0 9.0 0.00 0.00 0.00 77 1010.1
20260506200109 87 219 5.0 8.0 0.00 0.00 0.00 77 1010.1
20260506195559 87 251 4.0 8.0 0.00 0.00 0.00 77 1010.2
20260506195058 88 255 2.0 8.0 0.00 0.00 0.00 77 1010.4
20260506194601 87 155 2.0 8.0 0.00 0.00 0.00 78 1010.4
20260506194058 87 267 4.0 7.0 0.00 0.00 0.00 78 1010.4
20260506193558 87 273 3.0 8.0 0.00 0.00 0.00 78 1010.4
20260506193110 87 195 3.0 8.0 0.00 0.00 0.00 79 1010.6